| time (UTC) | temp F | wind direction | speed MPH | gust MPH | rain 1hr in | rain 24hr in | rain mn in | humidity % | barometer mb |
| 20260906060114 | 49 | 128 | 0.0 | 2.0 | 0.00 | 0.00 | 0.00 | 96 | |
| 20260906053104 | 46 | 140 | 0.0 | 2.0 | 0.00 | 0.00 | 0.00 | 98 | |
| 20260906050135 | 46 | 143 | 0.0 | 2.0 | 0.00 | 0.00 | 0.00 | 98 | |
| 20260906043044 | 46 | 130 | 0.0 | 1.0 | 0.00 | 0.00 | 0.00 | 98 | |
| 20260906040118 | 46 | 0.0 | 1.0 | 0.00 | 0.03 | 0.00 | 98 | ||
| 20260906033046 | 46 | 0.0 | 0.0 | 0.00 | 0.08 | 0.00 | 97 | ||
| 20260906030037 | 47 | 0.0 | 0.0 | 0.00 | 0.18 | 0.00 | 97 | ||
| 20260906023047 | 47 | 0.0 | 0.0 | 0.00 | 0.18 | 0.00 | 96 | ||
| 20260906020018 | 48 | 0.0 | 0.0 | 0.00 | 0.20 | 0.00 | 96 | ||
| 20260906013048 | 49 | 140 | 0.0 | 1.0 | 0.00 | 0.20 | 0.00 | 95 | |
| 20260906010019 | 50 | 132 | 0.0 | 1.0 | 0.00 | 0.20 | 0.00 | 94 | |
| 20260906003049 | 50 | 143 | 0.0 | 2.0 | 0.00 | 0.20 | 0.00 | 94 | |
| 20260906000020 | 50 | 0.0 | 1.0 | 0.00 | 0.20 | 0.00 | 93 | ||
| 20260905233050 | 51 | 0.0 | 1.0 | 0.00 | 0.20 | 0.00 | 92 | ||
| 20260905230021 | 52 | 139 | 0.0 | 1.0 | 0.00 | 0.20 | 0.00 | 91 | |
| 20260905223051 | 53 | 137 | 0.0 | 2.0 | 0.00 | 0.20 | 0.00 | 88 | |
| 20260905220021 | 53 | 125 | 0.0 | 1.0 | 0.00 | 0.20 | 0.00 | 88 | |
| 20260905213051 | 54 | 0.0 | 1.0 | 0.00 | 0.20 | 0.20 | 87 | ||
| 20260905210022 | 55 | 0.0 | 1.0 | 0.00 | 0.20 | 0.20 | 86 | ||
| 20260905203052 | 56 | 154 | 0.0 | 1.0 | 0.00 | 0.20 | 0.20 | 82 | |
| 20260905200024 | 58 | 123 | 0.0 | 1.0 | 0.00 | 0.20 | 0.20 | 79 | |
| 20260905193053 | 59 | 161 | 0.0 | 2.0 | 0.00 | 0.20 | 0.20 | 75 | |
| 20260905190023 | 60 | 107 | 0.0 | 1.0 | 0.00 | 0.20 | 0.20 | 75 | |
| 20260905183054 | 62 | 0.0 | 1.0 | 0.00 | 0.20 | 0.20 | 69 | ||
| 20260905180025 | 66 | 141 | 0.0 | 2.0 | 0.00 | 0.20 | 0.20 | 61 | |
| 20260905173055 | 69 | 175 | 1.0 | 6.0 | 0.00 | 0.20 | 0.20 | 53 | |
| 20260905170025 | 71 | 227 | 2.0 | 8.0 | 0.00 | 0.20 | 0.20 | 51 | |
| 20260905163116 | 72 | 251 | 3.0 | 10.0 | 0.00 | 0.20 | 0.20 | 49 | |
| 20260905160046 | 73 | 264 | 3.0 | 11.0 | 0.00 | 0.20 | 0.20 | 50 | |
| 20260905153056 | 74 | 234 | 3.0 | 11.0 | 0.00 | 0.20 | 0.20 | 48 | |
| 20260905150047 | 74 | 248 | 3.0 | 13.0 | 0.00 | 0.20 | 0.20 | 49 | |
| 20260905143058 | 73 | 256 | 4.0 | 16.0 | 0.00 | 0.20 | 0.20 | 49 | |
| 20260905140028 | 73 | 220 | 4.0 | 17.0 | 0.00 | 0.20 | 0.20 | 51 | |
| 20260905133059 | 74 | 246 | 4.0 | 15.0 | 0.00 | 0.20 | 0.20 | 52 | |
| 20260905130049 | 73 | 263 | 3.0 | 13.0 | 0.00 | 0.20 | 0.20 | 58 | |
| 20260905123120 | 72 | 282 | 4.0 | 13.0 | 0.00 | 0.20 | 0.20 | 61 | |
| 20260905120030 | 73 | 184 | 2.0 | 9.0 | 0.00 | 0.20 | 0.20 | 61 | |
| 20260905113101 | 71 | 238 | 3.0 | 17.0 | 0.00 | 0.20 | 0.20 | 65 | |
| 20260905110031 | 70 | 249 | 3.0 | 10.0 | 0.00 | 0.20 | 0.20 | 69 | |
| 20260905103101 | 68 | 190 | 2.0 | 10.0 | 0.00 | 0.20 | 0.20 | 73 | |
| 20260905100031 | 67 | 221 | 2.0 | 8.0 | 0.00 | 0.20 | 0.20 | 75 | |
| 20260905093102 | 67 | 221 | 2.0 | 7.0 | 0.00 | 0.20 | 0.20 | 76 | |
| 20260905090032 | 64 | 135 | 0.0 | 3.0 | 0.00 | 0.20 | 0.20 | 82 | |
| 20260905083102 | 63 | 199 | 1.0 | 6.0 | 0.00 | 0.20 | 0.20 | 82 | |
| 20260905080034 | 64 | 152 | 1.0 | 4.0 | 0.00 | 0.20 | 0.20 | 82 | |
| 20260905073104 | 62 | 152 | 0.0 | 4.0 | 0.00 | 0.20 | 0.20 | 87 | |
| 20260905070054 | 60 | 130 | 0.0 | 2.0 | 0.00 | 0.20 | 0.20 | 93 | |
| 20260905063105 | 58 | 130 | 0.0 | 2.0 | 0.00 | 0.20 | 0.20 | 96 |